Voltar ao catálogo

STARLINK-11495

AtivoComunicaçõesVLEO
NORAD 62275·PAYLOAD·🇺🇸 United States

Lançado Dec 8, 2024 de Cape Canaveral Space Force Station

Loading…

Próximas Passagens (próximas 24 horas)

TLE

AtualizadoSource: CelesTrak SupGP

Época: Sep 14, 2026, 21:26 UTC

1 62275C 24237J   26257.89354167 -.00006390  00000+0 -49593-4 0  2575
2 62275  43.0007 356.7854 0001735 266.4728  36.0148 15.70859267    10

Acompanhe STARLINK-11495 em tempo real com AllMySat

Download on the App Store